Location: Alpha Ridge Park
(39.3209°N, 76.9128°W)
Time: 02:27:42
(UTC-04:00)

BEESAT - Pass Details

Date: 03 July 2022
Orbit: 700 x 706 km, 98.6° (Epoch: 14 August)

Event Time Altitude Azimuth Distance (km) Brightness Sun altitude
Rises 22:39:24 0° 357° (N) 3,103 ? -18.3°
Reaches altitude 10° 22:42:09 10° 341° (NNW) 2,181 ? -18.6°
Maximum altitude 22:45:35 20° 295° (WNW) 1,595 ? -19.0°
Drops below altitude 10° 22:49:02 10° 248° (WSW) 2,173 ? -19.4°
Sets 22:51:47 0° 232° (SW) 3,088 ? -19.7°
